Home   Weather   Illnau-Effretikon   Past weeks

Flag for Switzerland Past Weather in Illnau-Effretikon, Zurich, Switzerland — Yesterday and Last 2 Weeks

Now
71 °F

Mild.


Feels Like: 77 °F
Forecast: 50 / 75 °F
Wind: 6 mph from Northeast

Location: Zuerich-Fluntern

Current Time: May 25, 2017 at 8:21:23 pm

Latest Report: May 25, 2017 at 7:00 pm


Visibility: N/A

Pressure: 30.06 "Hg (28.32 "Hg at 514m altitude)

Humidity: 38%

Dew Point: 44 °F

Location of Illnau-EffretikonLocation

Past Weather in Illnau-Effretikon — Graph

°F

Illnau-Effretikon Temperature Yesterday

Maximum temperature yesterday: 72 °F (at 4:00 pm)
Minimum temperature yesterday: 61 °F (at 6:00 am)
Average temperature yesterday: 66 °F

High & Low Weather Summary for the Past Weeks

 TemperatureHumidityPressure
High79 °F (May 17, 5:00 pm)96% (May 14, 2:00 am)30.43 "Hg (May 14, 2:00 am)
Low41 °F (May 20, 6:00 am)25% (May 16, 4:00 pm)29.41 "Hg (May 11, 6:00 pm)
Average60 °F65%30.05 "Hg
* Reported May 10 7:00 pm — May 25 7:00 pm, Illnau-Effretikon. Weather by CustomWeather, © 2017

Note: Actual official high and low records may vary slightly from our data, if they occured in-between our weather recording intervals... More about our weather records

Advertising

Illnau-Effretikon Weather History for the Previous 24 Hours

Scroll right to see more
 ConditionsComfort  
Time TempWeatherWind HumidityBarometerVisibility
7:00 pm
Thu, May 25
71 °FMild.6 mph38%30.06 "HgN/A
6:00 pm72 °FMild.7 mph37%30.06 "HgN/A
5:00 pm71 °FMild.6 mph38%30.07 "HgN/A
4:00 pm72 °FMild.6 mph38%30.07 "HgN/A
3:00 pm72 °FMild.7 mph43%30.09 "HgN/A
2:00 pm70 °FPassing clouds.5 mph38%30.09 "HgN/A
1:00 pm70 °FMild.5 mph41%30.11 "HgN/A
12:00 pm69 °FMild.5 mph50%30.13 "HgN/A
11:00 am67 °FMild.6 mph58%30.13 "HgN/A
10:00 am65 °FMild.3 mph58%30.15 "HgN/A
9:00 am63 °FMild.5 mph64%30.15 "HgN/A
8:00 am60 °FCool.6 mph70%30.16 "HgN/A
7:00 am57 °FCool.3 mph78%30.17 "HgN/A
6:00 am56 °FCool.5 mph76%30.17 "HgN/A
5:00 am56 °FCool.5 mph77%30.17 "HgN/A
4:00 am57 °FCool.3 mph73%30.17 "HgN/A
3:00 am60 °FCool.2 mph70%30.17 "HgN/A
2:00 am60 °FCool.2 mph67%30.18 "HgN/A
1:00 am62 °FMild.1 mph59%30.18 "HgN/A
12:00 am63 °FMild.2 mph58%30.18 "HgN/A
11:00 pm
Wed, May 24
65 °FMild.3 mph54%30.18 "HgN/A
10:00 pm66 °FMild.3 mph52%30.16 "HgN/A
9:00 pm67 °FMild.3 mph53%30.14 "HgN/A
8:00 pm69 °FPartly sunny.3 mph54%30.13 "HgN/A
Weather by CustomWeather, © 2017

See weather overviewHow to use our weather pages